Regional Weather Roundup
Issued by NWS

Home | Current Version | Previous Version | Text Only | Print | Product List | Glossary On
Versions: 1 2 3 4 5 6 7 8 9 10 11 12 13 14 15 16 17 18 19 20 21 22 23 24 25 26 27
000
ASUS45 KREV 111110
RWRNV
NEVADA REGIONAL WEATHER ROUNDUP
NATIONAL WEATHER SERVICE RENO NV
300 AM PST SUN DEC 11 2016

NOTE: "FAIR" INDICATES FEW OR NO CLOUDS BELOW 12,000 FEET WITH NO
SIGNIFICANT WEATHER AND/OR OBSTRUCTIONS TO VISIBILITY.

NVZ001-003-004-111200-
WESTERN NEVADA

CITY           SKY/WX    TMP DP  RH WIND       PRES   REMARKS
RENO           PTCLDY    37  29  72 CALM      30.10R
CARSON CITY    FAIR      41  19  42 W5        30.10S
MINDEN         FAIR      36  25  64 SE3       30.10R
PYRAMID LAKE     N/A     41 N/A N/A W1          N/A
FALLON         FOG       37  36  96 SW3       30.11R VSB 1/4
LOVELOCK       FOG       31  31 100 S5        30.11S VSB<1/4
HAWTHORNE        N/A     46  32  57 NW14      30.08R
$$

NVZ002-CAZ072-073-111200-
NORTHERN AND CENTRAL SIERRA

CITY           SKY/WX    TMP DP  RH WIND       PRES   REMARKS
S. LAKE TAHOE  PTCLDY    37  14  38 SW6       30.13S
TRUCKEE        CLEAR     27  27 100 CALM      30.14R
SQUAW VLY 8000 NOT AVBL
SUSANVILLE     CLEAR    N/A N/A N/A CALM      30.11S
MAMMOTH LAKES  FAIR      41  22  47 W13G18    30.14F
BRIDGEPORT       N/A     39  10  30 W16G23    30.09S
$$

NVZ030-031-036-111200-
NORTHERN NEVADA

CITY           SKY/WX    TMP DP  RH WIND       PRES   REMARKS
ELKO           PTCLDY    30  27  88 CALM      30.05S
WINNEMUCCA     CLEAR     31  28  89 E3        30.10R
WENDOVER       CLEAR     34  30  86 CALM      30.01R
$$

NVZ035-037-111200-
CENTRAL NEVADA

CITY           SKY/WX    TMP DP  RH WIND       PRES   REMARKS
ELY            CLOUDY    32  32 100 W7        30.05R
EUREKA           N/A     33  30  88 SE9       30.08R
$$

NVZ013-014-111200-
SOUTH CENTRAL NEVADA

CITY           SKY/WX    TMP DP  RH WIND       PRES   REMARKS
TONOPAH        MOCLDY    30  27  88 NE3       30.09R
$$

NVZ017-020-022-111200-
SOUTHERN NEVADA

CITY           SKY/WX    TMP DP  RH WIND       PRES   REMARKS
LAS VEGAS      MOCLDY    47  29  49 W7        30.04R
N. LAS VEGAS   MOCLDY    50  27  40 N9        30.03R
NELLIS AFB     CLOUDY    41  24  49 CALM      30.03R
HENDERSON      MOCLDY    43  26  51 SE6       30.04S
MERCURY        MOCLDY    38  27  64 CALM      30.04S
$$




USA.gov is the U.S. government's official web portal to all federal, state and local government web resources and services.